Vertical_Velocity
-4 -5 -4 -0 2 3 5 2 2 1 4 5 3 6 8 7 9 3 -2 7 7 -20 2 4 -1 4 -3 7 7 -3 0 5 -1 2 6 4 -6 4 1 0 -1 3 2 3 1 -3 -13 3 -1 -7 -3 -4 -1 -1
1 1 -1 -3 -1 -4 -6 -2 3 4 4 1 5 7 4 7 8 10 0 9 13 -3 -12 -1 7 6 -1 12 -0 -8 6 13 0 -2 5 -8 -4 -5 6 -11 2 -11 5 -1 5 4 1 -6 -1 1 0 -2 -5 -3
-3 -1 1 1 -1 -1 1 -2 -5 -6 0 3 6 6 6 7 10 7 6 11 11 7 -13 -7 1 11 11 6 13 3 -2 8 6 8 0 3 -5 1 13 -6 -1 2 2 -5 2 7 -2 -3 -0 -2 -5 -4 -4 -4
-2 -1 -1 0 1 0 -1 -1 -0 0 -2 -8 -6 1 7 6 5 4 -3 13 15 5 -16 11 7 2 9 6 7 7 7 5 5 7 1 4 8 2 -7 1 7 12 5 7 -2 1 -8 5 2 1 -2 -2 -3 -3
0 1 2 1 0 1 2 1 0 1 -0 1 -0 -6 -5 -1 -1 -1 -6 4 8 10 -16 -23 -6 9 4 2 3 3 3 4 7 2 2 -4 1 8 5 -1 8 9 5 4 -7 0 0 3 -1 3 1 -2 -1 -2
-3 -3 -0 1 -0 1 1 0 4 2 3 5 3 3 1 1 -5 2 -15 10 6 9 -5 -7 -16 -5 6 4 2 5 8 -1 5 7 6 -3 3 9 -5 0 11 8 3 -0 -2 -1 2 1 2 2 2 -1 1 -1
-1 0 -1 -2 1 5 8 6 5 3 4 5 5 4 6 7 1 -3 -9 -2 12 9 -1 -8 -21 2 -0 -1 0 1 4 1 3 1 -1 4 4 7 2 3 8 -0 -0 1 -0 -0 1 2 2 2 2 0 -0 1
-2 0 -1 -1 1 0 4 7 6 7 5 6 9 9 8 8 6 -1 -1 3 6 9 7 -10 -16 -10 3 -2 -1 3 -2 1 -0 -1 2 6 4 9 -4 7 1 2 1 -0 0 -0 -1 0 2 1 -0 -1 -2 -2
-0 -1 2 -0 3 1 -1 4 4 2 2 6 11 9 4 3 5 1 13 11 5 7 3 -16 -1 -6 -9 -0 2 -6 -1 -1 -3 -1 5 2 7 3 -1 -1 0 0 -2 1 0 1 -1 -1 -2 1 0 -1 -1 -1
-2 -0 0 -1 7 -1 0 3 3 3 3 18 0 10 -2 -1 13 13 3 -2 2 -0 -1 -4 4 -5 4 12 -1 5 -1 2 -5 -2 2 1 5 -0 -3 -2 0 0 0 -2 -1 1 -2 1 -1 -1 -1 0 1 0
-1 3 2 1 1 2 1 5 3 6 1 -3 -1 6 10 9 6 9 9 -2 5 -5 4 6 10 6 12 3 5 -0 1 1 -8 -1 2 -5 4 -3 -1 -1 -0 0 -1 -1 -0 -1 -1 -1 -0 -2 -1 -1 1 0
0 -1 -1 2 4 4 2 4 5 2 -2 3 7 6 -5 -0 2 7 10 7 1 -1 -11 4 10 6 6 4 4 -3 2 -4 -2 -1 -0 -4 -0 1 0 1 2 -0 -2 -1 0 -1 0 -0 0 -0 -2 -1 2 1
0 0 2 1 2 4 8 4 2 6 1 4 7 -1 3 2 3 -6 -8 5 2 8 8 7 4 9 4 10 1 1 -1 1 1 -1 -1 2 1 1 -0 0 0 -1 -1 -2 -3 -3 -1 -0 -0 1 -0 0 -1 -3
0 2 1 2 4 5 4 1 4 4 11 1 2 1 2 -4 1 -0 8 -5 -2 3 10 14 8 3 2 -4 3 3 -0 -0 -5 3 1 1 0 -1 -0 0 -1 -2 -2 -3 -2 -2 -2 -3 -1 1 0 -1 -0 -0
1 1 1 5 3 3 2 4 4 5 7 3 0 -1 3 -2 -2 3 3 -4 21 4 4 4 3 4 4 3 5 0 -2 -0 -0 -1 1 -0 0 -2 -1 -1 -1 -3 -5 -4 -3 -3 -2 -2 -3 -2 2 -1 -1 -1
-0 1 1 1 0 3 4 7 5 6 -0 0 -4 -3 -2 1 16 4 13 34 34 13 5 10 1 1 2 3 -1 1 1 1 1 1 1 0 -2 -1 -0 0 -2 -4 -4 -3 -2 -2 -1 -2 -2 -0 0 -1 -1 -2
5 4 1 2 8 6 4 7 5 2 -4 -9 -3 2 1 -0 0 2 1 1 4 6 4 2 4 2 -0 -0 2 2 1 -0 -0 2 0 -1 -3 -1 0 -1 -2 -3 -4 -2 -2 -1 -2 -2 -1 0 -0 -1 -2 -2
-2 -1 1 0 5 -2 1 2 -0 -6 -0 1 3 11 10 6 3 7 4 1 7 4 2 3 2 3 3 2 -0 0 -0 -0 1 -2 -2 -3 -2 0 -1 -3 -3 -3 -3 -3 -2 -2 -2 -2 -1 -0 0 -1 -2 -2
-2 4 1 3 1 6 7 -3 8 -0 -3 1 2 -2 -4 -2 1 8 9 5 3 6 6 2 3 2 1 2 -0 -1 -0 -0 -0 -2 -4 -2 0 -2 -3 -2 -2 -3 -3 -2 -2 -2 -2 -2 -2 -1 -0 -1 -1 -1
-3 1 0 1 0 2 4 5 2 3 2 1 -4 2 11 15 8 4 3 4 4 3 1 1 1 1 1 -0 -1 0 2 0 -3 -4 -2 -1 -3 -3 -2 -2 -3 -3 -2 -2 -2 -2 -2 -3 -3 -1 -0 -1 -1 -1
2 -5 -0 0 3 2 -0 0 4 -2 -6 -6 -1 1 1 2 1 3 3 3 2 2 1 1 1 0 -0 1 2 1 -2 -3 -2 -1 -1 -2 -3 -3 -2 -3 -3 -3 -3 -2 -0 -1 -2 -1 -2 -1 -2 -2 -1 -1
1 0 1 3 2 0 -3 -5 -4 -0 6 6 6 4 2 1 2 3 2 2 1 2 1 1 0 0 1 2 0 -2 -1 -1 -0 -1 -2 -2 -1 -2 -2 -2 -2 -1 -1 -1 -1 -1 -1 -1 -2 -2 -2 -2 -2 -2
-1 1 0 -0 -1 1 2 2 3 3 2 -1 0 2 2 3 2 2 1 0 0 -0 1 1 1 0 0 -1 -1 -0 0 0 -1 -1 -1 -1 -1 -1 -2 -1 -1 -1 -1 -1 -1 -1 -1 -1 -2 -2 -3 -2 -1 -1
-1 -1 -1 -2 -1 -0 0 1 2 2 2 2 2 3 2 1 0 -0 -1 0 1 1 -0 -0 -0 -0 0 1 -0 -1 -0 -0 -0 -1 -1 0 -0 -1 -1 -1 -1 -1 -1 -1 -1 -1 -1 0 -1 -2 -2 -2 -2 -2
3 2 -4 1 1 -0 2 2 1 4 1 0 2 1 -1 -1 1 0 -1 -1 -0 0 0 1 1 1 0 1 1 0 -0 -1 -1 0 0 1 0 0 1 0 -0 -1 -1 -1 -1 -1 -1 -2 -1 -1 -0 -1 -1 -1
-3 -6 -1 2 -1 2 -0 2 -0 -0 -1 2 -2 -1 -1 0 0 -1 0 1 1 1 1 0 0 0 1 0 -0 -1 -0 -1 -1 -1 -1 -0 1 1 1 1 -0 -1 -0 -0 -1 -1 -1 -2 -2 -2 -1 -1 -1 -1
-17 -4 3 1 -0 6 -2 -2 -1 -0 -0 -3 -1 0 0 -4 -5 -3 -0 -0 -1 -0 -1 -1 -1 -1 -2 -2 -1 -1 -1 -0 -1 -1 -0 0 0 0 0 0 0 0 -1 -0 0 -0 -1 -1 -1 -1 -1 -1 -1 -0
-0 -5 3 -1 -4 -1 -2 1 0 -3 -1 -2 -1 -4 -6 -3 -0 1 1 2 1 0 -0 -1 -1 -1 -0 -1 -0 -0 0 1 1 1 1 1 1 0 -0 0 1 0 1 0 0 1 -0 0 1 -0 -0 0 -0 -0
-5 -3 1 -2 4 1 -3 -3 -4 -3 -2 -0 -0 -2 -1 0 1 0 0 -1 -1 -2 -1 -0 0 0 1 1 2 2 1 2 2 2 2 2 1 1 0 0 1 1 0 0 -0 -1 -0 -1 -1 -0 1 0 0 0
-7 3 0 7 4 -6 -4 -4 -0 -0 -1 -3 -5 -4 -3 -2 -1 -0 1 1 1 2 3 3 3 2 2 2 2 2 2 1 2 2 2 2 2 1 1 1 1 1 2 1 1 1 1 2 3 1 1 0 0 -0
-3 5 1 0 -7 -4 -2 -2 -4 -2 -2 -3 -4 -4 -2 -2 4 4 3 2 2 3 3 3 3 3 2 2 2 2 2 2 2 2 2 1 1 2 2 2 1 1 1 0 0 1 1 1 1 2 2 2 1 0
1 -2 -2 -5 -5 -4 -2 -1 1 -0 -0 -0 -0 3 1 3 1 2 1 1 2 2 3 3 2 2 2 2 2 2 2 2 2 2 2 2 2 1 2 1 1 1 0 -1 -0 0 0 0 0 0 -0 0 1 1
-5 -3 -0 -2 -2 -1 1 2 -0 -3 -5 -6 -3 -2 -2 -0 -5 -3 0 -1 1 2 2 2 1 2 2 3 2 1 1 0 2 2 2 3 3 1 -1 0 2 1 0 0 1 0 -0 0 -0 -0 0 0 0 1
Height
5589 5587 5585 5583 5581 5580 5579 5578 5577 5576 5576 5575 5573 5572 5569 5565 5561 5553 5555 5551 5541 5536 5542 5540 5534 5529 5525 5519 5513 5506 5498 5492 5484 5479 5471 5466 5457 5452 5444 5440 5434 5429 5420 5413 5403 5392 5388 5386 5380 5374 5369 5363 5357 5351
5570 5568 5565 5563 5561 5559 5557 5555 5554 5553 5552 5551 5551 5550 5548 5547 5543 5537 5537 5532 5525 5512 5524 5521 5518 5515 5508 5504 5496 5489 5483 5477 5466 5461 5456 5447 5442 5436 5432 5426 5420 5411 5408 5398 5392 5383 5375 5369 5366 5359 5353 5347 5342 5337
5547 5545 5544 5542 5539 5537 5536 5535 5532 5531 5531 5530 5529 5528 5526 5524 5522 5518 5516 5513 5506 5497 5494 5500 5501 5498 5493 5489 5483 5470 5467 5462 5454 5447 5439 5434 5425 5421 5415 5410 5404 5397 5390 5383 5374 5371 5363 5355 5349 5343 5337 5332 5326 5320
5518 5518 5518 5517 5516 5514 5513 5512 5510 5508 5507 5505 5504 5504 5504 5502 5499 5495 5494 5495 5487 5478 5469 5484 5482 5481 5478 5472 5466 5459 5451 5444 5438 5431 5423 5419 5413 5405 5400 5396 5390 5385 5375 5368 5361 5355 5348 5343 5335 5327 5321 5315 5309 5303
5486 5486 5486 5486 5487 5487 5486 5486 5486 5486 5486 5485 5482 5480 5480 5478 5475 5471 5470 5473 5468 5458 5446 5453 5458 5463 5459 5456 5450 5442 5435 5429 5422 5415 5408 5403 5397 5390 5383 5377 5376 5369 5362 5354 5347 5342 5334 5329 5320 5313 5304 5298 5292 5286
5450 5450 5450 5451 5452 5454 5456 5456 5458 5459 5461 5461 5461 5461 5459 5456 5454 5449 5450 5456 5451 5443 5432 5430 5436 5442 5440 5436 5432 5426 5419 5412 5405 5399 5393 5386 5381 5374 5365 5362 5359 5352 5344 5337 5333 5326 5319 5311 5305 5297 5290 5282 5277 5271
5412 5412 5413 5414 5416 5418 5419 5421 5423 5428 5431 5434 5435 5438 5438 5438 5432 5430 5435 5436 5435 5427 5419 5412 5412 5424 5422 5419 5415 5410 5403 5396 5390 5383 5377 5371 5366 5358 5351 5348 5342 5334 5328 5321 5314 5308 5302 5295 5287 5281 5274 5266 5260 5255
5379 5380 5381 5382 5383 5384 5384 5387 5391 5394 5399 5405 5409 5411 5413 5413 5412 5413 5415 5416 5414 5410 5404 5397 5400 5406 5405 5401 5397 5391 5384 5378 5372 5365 5362 5357 5350 5343 5338 5333 5325 5318 5311 5304 5297 5290 5285 5278 5270 5263 5256 5249 5243 5238
5349 5350 5351 5352 5353 5355 5357 5358 5362 5365 5371 5377 5379 5379 5384 5388 5391 5396 5397 5395 5393 5393 5385 5385 5390 5389 5387 5386 5379 5373 5367 5360 5355 5352 5347 5341 5337 5328 5322 5317 5310 5303 5296 5289 5281 5273 5266 5259 5253 5246 5239 5232 5226 5222
5322 5323 5324 5325 5327 5330 5332 5334 5336 5340 5343 5348 5349 5353 5356 5366 5373 5377 5373 5371 5371 5372 5372 5373 5376 5374 5372 5367 5361 5356 5350 5345 5338 5338 5331 5327 5322 5313 5307 5301 5294 5287 5280 5273 5265 5258 5250 5242 5235 5228 5222 5216 5211 5206
5295 5297 5298 5301 5304 5306 5308 5312 5316 5318 5320 5324 5328 5332 5333 5340 5347 5350 5348 5349 5352 5354 5359 5364 5363 5359 5356 5350 5345 5339 5333 5328 5324 5325 5317 5312 5306 5298 5292 5286 5278 5272 5264 5257 5249 5241 5233 5225 5218 5211 5205 5199 5195 5190
5270 5271 5273 5275 5278 5282 5286 5291 5296 5298 5301 5307 5310 5309 5316 5321 5322 5326 5325 5328 5333 5339 5346 5349 5347 5342 5338 5333 5328 5324 5320 5315 5312 5309 5303 5296 5290 5283 5276 5270 5263 5256 5248 5240 5233 5225 5217 5210 5203 5195 5189 5183 5179 5175
5249 5250 5251 5254 5257 5261 5265 5269 5275 5279 5285 5289 5293 5296 5300 5304 5306 5307 5313 5318 5320 5324 5329 5330 5328 5325 5321 5319 5313 5310 5306 5304 5299 5295 5288 5282 5274 5267 5261 5254 5247 5240 5232 5225 5217 5210 5203 5196 5188 5181 5174 5168 5162 5158
5235 5236 5238 5239 5242 5246 5250 5254 5261 5265 5270 5273 5278 5282 5286 5288 5294 5300 5304 5306 5310 5310 5313 5313 5311 5310 5306 5304 5301 5298 5293 5290 5285 5280 5274 5266 5259 5253 5247 5240 5232 5225 5218 5210 5203 5196 5189 5181 5173 5167 5160 5152 5147 5143
5225 5227 5229 5232 5234 5237 5240 5243 5248 5253 5258 5264 5267 5270 5275 5281 5286 5289 5293 5297 5298 5300 5301 5300 5299 5298 5295 5292 5291 5286 5281 5277 5271 5266 5260 5253 5246 5240 5234 5226 5219 5212 5205 5198 5191 5183 5175 5168 5160 5153 5146 5139 5133 5130
5222 5224 5225 5226 5228 5230 5232 5236 5240 5245 5248 5253 5257 5265 5271 5276 5278 5282 5284 5288 5289 5289 5290 5290 5287 5286 5284 5282 5279 5274 5270 5265 5260 5254 5248 5242 5236 5229 5222 5215 5208 5201 5195 5188 5180 5172 5164 5156 5149 5141 5133 5127 5123 5120
5222 5221 5222 5222 5225 5226 5229 5234 5236 5239 5245 5249 5255 5260 5263 5267 5271 5275 5278 5279 5281 5281 5281 5280 5278 5276 5274 5271 5267 5263 5259 5254 5249 5244 5239 5233 5226 5219 5212 5205 5199 5192 5185 5177 5170 5162 5154 5147 5139 5131 5124 5119 5115 5112
5218 5218 5219 5222 5224 5227 5230 5232 5236 5240 5245 5250 5254 5259 5261 5264 5267 5270 5272 5273 5274 5274 5273 5272 5270 5267 5264 5261 5257 5254 5250 5246 5241 5236 5230 5224 5217 5210 5204 5198 5191 5184 5176 5169 5162 5154 5147 5139 5131 5123 5117 5112 5108 5106
5218 5218 5219 5221 5225 5230 5233 5236 5239 5242 5246 5251 5254 5258 5260 5261 5264 5267 5268 5268 5268 5267 5266 5264 5262 5259 5256 5252 5250 5247 5243 5239 5234 5229 5223 5217 5210 5204 5197 5190 5183 5177 5170 5163 5156 5148 5141 5133 5125 5117 5111 5107 5103 5100
5220 5220 5221 5224 5226 5230 5235 5239 5244 5246 5250 5254 5257 5258 5260 5262 5264 5265 5264 5264 5262 5261 5260 5257 5255 5252 5250 5248 5245 5242 5238 5233 5229 5223 5218 5212 5205 5198 5191 5184 5177 5171 5165 5158 5151 5144 5136 5129 5121 5113 5107 5103 5099 5096
5222 5222 5224 5227 5230 5234 5238 5242 5247 5250 5253 5256 5258 5260 5261 5261 5262 5262 5261 5260 5259 5257 5254 5253 5251 5250 5247 5244 5241 5237 5233 5228 5223 5218 5213 5207 5200 5193 5186 5179 5172 5166 5160 5153 5147 5141 5134 5126 5119 5112 5105 5100 5096 5092
5225 5225 5228 5231 5233 5237 5242 5246 5251 5253 5256 5258 5260 5261 5261 5261 5261 5260 5259 5257 5256 5254 5253 5252 5250 5247 5244 5240 5236 5232 5227 5222 5217 5212 5207 5201 5194 5188 5182 5175 5168 5162 5156 5151 5144 5138 5131 5125 5118 5112 5105 5098 5093 5089
5233 5235 5236 5238 5241 5244 5249 5251 5255 5257 5260 5261 5262 5262 5262 5261 5261 5260 5259 5258 5257 5255 5253 5251 5248 5244 5240 5236 5231 5226 5221 5217 5212 5206 5200 5195 5190 5184 5178 5171 5165 5159 5153 5147 5142 5136 5130 5124 5118 5112 5105 5099 5093 5088
5244 5245 5246 5248 5250 5253 5256 5258 5260 5262 5263 5264 5264 5264 5264 5264 5264 5263 5262 5260 5258 5255 5252 5249 5245 5240 5236 5231 5226 5221 5216 5211 5205 5200 5195 5190 5185 5179 5174 5168 5162 5156 5150 5145 5140 5134 5129 5124 5119 5113 5107 5101 5095 5090
5257 5257 5256 5257 5260 5261 5263 5265 5267 5269 5270 5270 5271 5271 5270 5269 5268 5266 5264 5261 5258 5254 5249 5245 5240 5235 5230 5225 5220 5215 5210 5204 5199 5195 5190 5185 5180 5175 5170 5164 5159 5153 5148 5142 5137 5132 5127 5123 5118 5114 5109 5103 5098 5092
5267 5267 5269 5270 5272 5274 5275 5277 5278 5279 5280 5280 5278 5277 5275 5273 5271 5267 5264 5260 5256 5251 5246 5241 5236 5231 5226 5220 5215 5209 5204 5199 5194 5189 5184 5180 5175 5170 5165 5160 5155 5150 5144 5139 5134 5130 5125 5121 5117 5113 5108 5104 5099 5094
5279 5281 5284 5286 5287 5289 5288 5288 5288 5288 5287 5285 5283 5281 5279 5275 5271 5268 5264 5259 5254 5249 5244 5238 5233 5227 5221 5216 5210 5205 5199 5194 5189 5184 5179 5174 5169 5164 5159 5154 5150 5146 5141 5136 5131 5127 5123 5119 5115 5111 5107 5103 5100 5096
5297 5298 5300 5301 5299 5299 5298 5298 5296 5294 5292 5291 5288 5284 5280 5276 5273 5269 5264 5258 5253 5247 5241 5235 5229 5223 5217 5211 5205 5200 5194 5189 5184 5178 5173 5168 5163 5158 5153 5149 5144 5140 5136 5131 5127 5124 5120 5116 5112 5109 5105 5102 5098 5095
5312 5313 5313 5313 5313 5310 5307 5305 5303 5300 5298 5296 5292 5288 5284 5279 5275 5270 5264 5258 5251 5245 5238 5232 5225 5219 5212 5206 5200 5194 5189 5183 5178 5172 5167 5161 5156 5152 5147 5142 5138 5133 5129 5126 5122 5118 5115 5111 5108 5105 5102 5099 5096 5093
5327 5328 5326 5325 5321 5317 5316 5313 5311 5308 5305 5301 5297 5292 5288 5282 5277 5270 5264 5257 5250 5243 5235 5228 5221 5214 5207 5200 5194 5188 5182 5176 5171 5165 5159 5154 5149 5144 5139 5135 5130 5126 5123 5119 5116 5113 5109 5106 5104 5101 5098 5095 5092 5090
5339 5339 5337 5335 5331 5329 5327 5324 5320 5316 5312 5308 5303 5297 5292 5285 5279 5271 5263 5255 5247 5239 5231 5223 5216 5208 5200 5193 5186 5180 5174 5168 5162 5157 5151 5145 5140 5135 5130 5126 5122 5118 5115 5111 5108 5105 5102 5099 5097 5094 5092 5090 5087 5085
5352 5351 5349 5346 5343 5340 5337 5333 5328 5324 5320 5314 5309 5302 5295 5288 5280 5271 5262 5253 5243 5234 5226 5217 5208 5201 5193 5185 5178 5172 5165 5159 5153 5148 5142 5136 5131 5126 5121 5117 5113 5109 5105 5102 5099 5096 5093 5090 5088 5086 5083 5082 5080 5079
5364 5362 5360 5357 5354 5350 5347 5343 5337 5332 5326 5318 5311 5304 5296 5288 5278 5269 5260 5249 5240 5230 5221 5212 5203 5195 5187 5179 5171 5164 5157 5150 5145 5138 5132 5127 5121 5116 5111 5107 5103 5099 5095 5091 5088 5085 5082 5080 5077 5075 5073 5071 5070 5069